�P�ʁF[MW],,,,,,,,
�ݔ�No.,11,21,23,31,36,41,49,51
�d��[kV],66,66,66,66,66,66,66,66
�ݔ���,�{�֐���,�L���,�L���,�y�ʐ�,�o�ʐ�,����,����������,�j�Òn����
���d�[,�����ϓd��,�����ϓd��,�L��J��,�����ϓd��,�y�ʕϓd��,�����ϓd��,���ϓd��,���������ϓd��
��d�[,�{�֐��ϓd��,�L��J��,����,�o�ʐt�x������,�o�ʕϓd��,�h�ʎx������,���������ϓd��,�j�Õϓd��
2022/4/1 0:00,-40,-12,-12,19,7,39,8,2
2022/4/1 1:00,-42,-10,-10,19,7,39,8,2
2022/4/1 2:00,-49,-7,-7,20,7,44,8,2
2022/4/1 3:00,-52,-12,-12,20,7,46,8,2
2022/4/1 4:00,-54,-13,-13,22,7,49,8,2
2022/4/1 5:00,-55,-17,-17,23,8,52,9,3
2022/4/1 6:00,-57,-16,-16,23,7,52,9,3
2022/4/1 7:00,-60,-7,-7,17,4,47,9,2
2022/4/1 8:00,-63,-16,-16,7,-4,44,8,2
2022/4/1 9:00,-64,-13,-13,-1,-10,46,9,2
2022/4/1 10:00,-61,-33,-33,-4,-13,46,8,2
2022/4/1 11:00,-63,-35,-35,-4,-12,43,8,2
2022/4/1 12:00,-64,-36,-36,-3,-10,41,8,2
2022/4/1 13:00,-64,-34,-34,-6,-14,40,9,2
2022/4/1 14:00,-62,-34,-34,4,-5,42,9,2
2022/4/1 15:00,-60,-28,-28,2,-9,44,9,2
2022/4/1 16:00,-59,-24,-24,6,-6,41,9,2
2022/4/1 17:00,-58,-32,-32,15,3,41,8,2
2022/4/1 18:00,-57,-14,-14,21,8,42,8,1
2022/4/1 19:00,-57,-11,-11,23,8,43,9,2
2022/4/1 20:00,-57,-6,-6,23,8,43,9,2
2022/4/1 21:00,-57,-3,-3,22,8,42,9,2
2022/4/1 22:00,-56,-4,-4,21,8,40,9,2
2022/4/1 23:00,-56,-3,-3,20,7,43,8,2
2022/4/2 0:00,-55,-12,-12,20,7,47,8,2
2022/4/2 1:00,-56,-10,-10,20,7,43,8,2
2022/4/2 2:00,-56,-7,-7,21,7,45,8,2
2022/4/2 3:00,-55,-2,-2,22,7,49,9,3
2022/4/2 4:00,-54,-1,-1,22,7,52,9,2
2022/4/2 5:00,-55,-3,-3,24,8,53,9,3
2022/4/2 6:00,-56,-8,-8,23,8,51,9,3
2022/4/2 7:00,-57,-8,-8,16,3,44,9,3
2022/4/2 8:00,-60,-6,-6,4,-6,40,8,2
2022/4/2 9:00,-61,-4,-4,-4,-12,39,8,2
2022/4/2 10:00,-61,-7,-7,-7,-14,38,8,2
2022/4/2 11:00,-61,-12,-12,-4,-11,35,8,2
2022/4/2 12:00,-62,-17,-17,-5,-12,35,8,2
2022/4/2 13:00,-63,-17,-17,-5,-12,32,8,2
2022/4/2 14:00,-62,-31,-31,-7,-13,33,7,1
2022/4/2 15:00,-62,-31,-31,-8,-15,34,7,1
2022/4/2 16:00,-60,-29,-29,0,-9,34,8,1
2022/4/2 17:00,-58,-29,-29,10,0,33,7,1
2022/4/2 18:00,-57,-26,-26,19,7,35,7,1
2022/4/2 19:00,-55,-24,-24,22,8,40,8,1
2022/4/2 20:00,-55,-31,-31,22,8,39,8,2
2022/4/2 21:00,-55,-25,-25,21,8,37,8,2
2022/4/2 22:00,-55,-28,-28,20,8,36,8,2
2022/4/2 23:00,-56,-27,-27,18,7,35,7,2
2022/4/3 0:00,-56,-32,-32,19,7,37,7,1
2022/4/3 1:00,-57,-34,-34,19,7,37,6,1
2022/4/3 2:00,-57,-38,-38,19,7,40,7,2
2022/4/3 3:00,-56,-35,-35,20,7,42,7,2
2022/4/3 4:00,-56,-22,-22,21,7,44,8,2
2022/4/3 5:00,-56,-18,-18,22,7,46,9,3
2022/4/3 6:00,-56,-15,-15,21,7,45,9,3
2022/4/3 7:00,-57,-9,-9,16,4,39,8,2
2022/4/3 8:00,-58,-9,-9,5,-5,37,7,2
2022/4/3 9:00,-59,-7,-7,-5,-12,34,7,2
2022/4/3 10:00,-61,-8,-8,-11,-17,32,7,2
2022/4/3 11:00,-62,-20,-20,-15,-21,30,7,2
2022/4/3 12:00,-63,-28,-28,-16,-21,30,6,1
2022/4/3 13:00,-63,-28,-28,-16,-21,30,6,1
2022/4/3 14:00,-63,-24,-24,-15,-20,29,6,1
2022/4/3 15:00,-63,-19,-19,-9,-16,29,6,1
2022/4/3 16:00,-62,-17,-17,-1,-9,30,7,1
2022/4/3 17:00,-59,-14,-14,9,-1,33,7,1
2022/4/3 18:00,-57,-11,-11,19,7,36,7,2
2022/4/3 19:00,-56,-13,-13,21,8,38,8,2
2022/4/3 20:00,-57,-10,-10,21,8,37,8,2
2022/4/3 21:00,-57,-6,-6,20,8,36,8,2
2022/4/3 22:00,-57,-3,-3,20,7,35,7,2
2022/4/3 23:00,-56,-4,-4,18,7,34,7,2
2022/4/4 0:00,-57,-1,-1,19,7,37,7,2
2022/4/4 1:00,-58,0,0,18,7,35,7,2
2022/4/4 2:00,-57,0,0,19,7,38,7,2
2022/4/4 3:00,-56,0,0,20,7,41,8,2
2022/4/4 4:00,-54,0,0,21,7,44,8,3
2022/4/4 5:00,-54,0,0,23,7,48,9,3
2022/4/4 6:00,-54,0,0,23,7,47,9,3
2022/4/4 7:00,-55,0,0,15,2,43,8,3
2022/4/4 8:00,-55,0,0,3,-6,40,8,2
2022/4/4 9:00,-56,0,0,-4,-12,42,9,3
2022/4/4 10:00,-56,0,0,-11,-18,43,9,3
2022/4/4 11:00,-56,0,0,-14,-20,40,9,2
2022/4/4 12:00,-56,0,0,-14,-21,40,9,2
2022/4/4 13:00,-57,0,0,-15,-21,36,9,2
2022/4/4 14:00,-57,0,0,-12,-19,38,9,2
2022/4/4 15:00,-56,0,0,-7,-15,37,9,2
2022/4/4 16:00,-54,0,0,1,-8,38,9,2
2022/4/4 17:00,-50,0,0,10,-1,40,9,2
2022/4/4 18:00,-49,0,0,19,7,42,9,2
2022/4/4 19:00,-48,0,0,21,8,44,9,2
2022/4/4 20:00,-48,0,0,21,8,43,9,2
2022/4/4 21:00,-48,0,0,21,8,41,8,2
2022/4/4 22:00,-49,0,0,20,7,41,8,2
2022/4/4 23:00,-50,0,0,18,7,39,7,2
2022/4/5 0:00,-49,0,0,19,7,41,7,2
2022/4/5 1:00,-50,0,0,18,7,40,7,2
2022/4/5 2:00,-50,0,0,19,7,42,7,2
2022/4/5 3:00,-50,0,0,20,7,45,8,2
2022/4/5 4:00,-51,0,0,21,7,46,8,3
2022/4/5 5:00,-50,0,0,22,7,49,9,3
2022/4/5 6:00,-49,0,0,22,7,50,9,3
2022/4/5 7:00,-50,0,0,15,2,45,9,3
2022/4/5 8:00,-52,0,0,4,-6,41,8,2
2022/4/5 9:00,-53,0,0,-2,-12,43,9,3
2022/4/5 10:00,-50,0,0,-11,-18,46,9,3
2022/4/5 11:00,-48,-1,-1,-14,-21,43,9,2
2022/4/5 12:00,-49,0,0,-14,-21,42,9,2
2022/4/5 13:00,-49,0,0,-15,-21,36,8,2
2022/4/5 14:00,-50,0,0,-13,-19,39,9,2
2022/4/5 15:00,-50,0,0,-7,-15,42,9,2
2022/4/5 16:00,-50,0,0,1,-8,42,9,2
2022/4/5 17:00,-49,0,0,10,-1,40,9,2
2022/4/5 18:00,-48,0,0,18,6,40,9,2
2022/4/5 19:00,-47,0,0,21,7,42,9,2
2022/4/5 20:00,-47,0,0,20,7,40,9,2
2022/4/5 21:00,-47,0,0,20,7,38,8,2
2022/4/5 22:00,-47,0,0,19,7,36,7,2
2022/4/5 23:00,-48,0,0,18,6,36,7,2
2022/4/6 0:00,-48,0,0,18,7,37,7,2
2022/4/6 1:00,-49,-2,-2,18,6,37,7,2
2022/4/6 2:00,-49,-2,-2,19,6,38,7,2
2022/4/6 3:00,-49,-1,-1,20,7,39,8,2
2022/4/6 4:00,-49,-3,-3,20,7,42,8,2
2022/4/6 5:00,-50,-5,-5,22,7,46,9,3
2022/4/6 6:00,-50,-2,-2,21,7,45,9,3
2022/4/6 7:00,-50,-2,-2,20,6,42,9,2
2022/4/6 8:00,-50,-3,-3,19,7,42,9,2
2022/4/6 9:00,-48,-3,-3,21,7,46,10,3
2022/4/6 10:00,-47,-8,-8,21,7,47,10,3
2022/4/6 11:00,-51,-15,-15,14,2,46,9,2
2022/4/6 12:00,-52,-20,-20,9,-2,41,8,2
2022/4/6 13:00,-55,-19,-19,-1,-10,37,7,1
2022/4/6 14:00,-55,-20,-20,-10,-18,40,8,2
2022/4/6 15:00,-55,-18,-18,-8,-16,39,8,2
2022/4/6 16:00,-53,-17,-17,0,-9,39,8,1
2022/4/6 17:00,-50,-18,-18,9,-2,41,8,2
2022/4/6 18:00,-48,-21,-21,19,6,41,8,1
2022/4/6 19:00,-47,-21,-21,21,7,42,8,1
2022/4/6 20:00,-47,-17,-17,21,7,43,8,2
2022/4/6 21:00,-44,-11,-11,20,7,40,8,2
2022/4/6 22:00,-42,-19,-19,19,7,37,7,1
2022/4/6 23:00,-42,-12,-12,19,7,36,7,1
2022/4/7 0:00,-42,-6,-6,19,7,37,7,1
2022/4/7 1:00,-44,-6,-6,19,7,38,7,1
2022/4/7 2:00,-43,-6,-6,20,7,41,7,2
2022/4/7 3:00,-43,-3,-3,20,7,43,8,2
2022/4/7 4:00,-42,0,0,21,7,46,8,2
2022/4/7 5:00,-43,-2,-2,23,7,50,9,3
2022/4/7 6:00,-43,-1,-1,22,7,49,9,3
2022/4/7 7:00,-45,0,0,15,1,44,9,3
2022/4/7 8:00,-48,0,0,3,-6,40,9,2
2022/4/7 9:00,-49,0,0,-1,-10,44,10,3
2022/4/7 10:00,-49,0,0,-4,-11,47,10,3
2022/4/7 11:00,-49,-1,-1,-7,-15,46,10,2
2022/4/7 12:00,-50,0,0,-8,-16,46,10,2
2022/4/7 13:00,-55,-2,-2,-10,-18,41,9,2
2022/4/7 14:00,-54,-3,-3,-5,-14,46,9,2
2022/4/7 15:00,-52,-6,-6,5,-5,47,9,2
2022/4/7 16:00,-51,-10,-10,13,1,46,9,2
2022/4/7 17:00,-50,-14,-14,19,6,45,9,2
2022/4/7 18:00,-50,-19,-19,21,7,47,9,2
2022/4/7 19:00,-49,-23,-23,22,8,47,10,2
2022/4/7 20:00,-49,-21,-21,21,7,44,9,2
2022/4/7 21:00,-50,-22,-22,21,7,41,8,2
2022/4/7 22:00,-52,-26,-26,20,7,39,7,2
2022/4/7 23:00,-51,-15,-15,19,7,39,7,2
2022/4/8 0:00,-51,-9,-9,20,7,42,7,2
2022/4/8 1:00,-52,-6,-6,19,7,42,7,2
2022/4/8 2:00,-53,-1,-1,20,7,45,8,2
2022/4/8 3:00,-54,0,0,21,7,47,8,2
2022/4/8 4:00,-53,0,0,22,7,51,9,3
2022/4/8 5:00,-53,0,0,23,7,54,9,3
2022/4/8 6:00,-55,-2,-2,23,7,50,9,3
2022/4/8 7:00,-56,-6,-6,23,8,49,9,3
2022/4/8 8:00,-57,-4,-4,18,6,44,9,2
2022/4/8 9:00,-60,-3,-3,12,2,47,10,3
2022/4/8 10:00,-62,-4,-4,6,-3,46,10,3
2022/4/8 11:00,-61,-6,-6,2,-7,45,10,3
2022/4/8 12:00,-61,-11,-11,4,-5,43,9,2
2022/4/8 13:00,-65,-17,-17,5,-3,37,8,1
2022/4/8 14:00,-63,-18,-18,6,-2,42,8,2
2022/4/8 15:00,-64,-27,-27,2,-6,43,9,2
2022/4/8 16:00,-65,-33,-33,3,-7,40,8,1
2022/4/8 17:00,-63,-35,-35,11,0,40,8,1
2022/4/8 18:00,-62,-27,-27,19,7,42,9,1
2022/4/8 19:00,-60,-24,-24,22,8,44,9,2
2022/4/8 20:00,-60,-11,-11,21,8,43,9,2
2022/4/8 21:00,-61,-8,-8,21,8,39,8,2
2022/4/8 22:00,-62,-4,-4,20,8,38,8,2
2022/4/8 23:00,-63,-1,-1,18,7,38,8,2
2022/4/9 0:00,-62,0,0,19,7,40,7,2
2022/4/9 1:00,-62,0,0,19,7,38,7,2
2022/4/9 2:00,-62,-1,-1,19,7,39,7,2
2022/4/9 3:00,-62,-2,-2,20,7,42,8,2
2022/4/9 4:00,-62,-1,-1,21,7,43,8,2
2022/4/9 5:00,-61,0,0,22,7,45,9,3
2022/4/9 6:00,-62,-2,-2,22,7,43,8,3
2022/4/9 7:00,-64,-6,-6,14,2,37,8,2
2022/4/9 8:00,-66,-8,-8,4,-5,33,7,2
2022/4/9 9:00,-67,-5,-5,-2,-10,33,8,2
2022/4/9 10:00,-67,-2,-2,-9,-16,32,8,2
2022/4/9 11:00,-68,-2,-2,-14,-20,31,8,2
2022/4/9 12:00,-68,-3,-3,-14,-20,31,8,2
2022/4/9 13:00,-68,-1,-1,-14,-19,30,8,1
2022/4/9 14:00,-67,-3,-3,-10,-17,31,8,2
2022/4/9 15:00,-67,-11,-11,-3,-11,34,8,2
2022/4/9 16:00,-66,-12,-12,5,-5,34,8,2
2022/4/9 17:00,-63,-21,-21,15,4,35,8,2
2022/4/9 18:00,-62,-23,-23,19,7,36,7,1
2022/4/9 19:00,-61,-28,-28,21,8,38,7,1
2022/4/9 20:00,-61,-24,-24,21,8,38,7,1
2022/4/9 21:00,-61,-26,-26,20,8,36,7,1
2022/4/9 22:00,-62,-15,-15,19,7,34,7,1
2022/4/9 23:00,-63,-7,-7,18,7,32,7,2
2022/4/10 0:00,-62,-15,-15,18,7,33,7,2
2022/4/10 1:00,-62,-10,-10,18,6,32,6,2
2022/4/10 2:00,-62,-6,-6,19,6,34,7,2
2022/4/10 3:00,-62,-2,-2,20,7,37,7,2
2022/4/10 4:00,-62,0,0,20,7,40,8,2
2022/4/10 5:00,-62,0,0,21,7,41,8,3
2022/4/10 6:00,-63,0,0,20,6,40,8,3
2022/4/10 7:00,-64,0,0,15,3,36,8,2
2022/4/10 8:00,-65,-1,-1,8,-2,33,7,2
2022/4/10 9:00,-67,0,0,1,-7,33,7,2
2022/4/10 10:00,-68,0,0,-6,-13,33,8,2
2022/4/10 11:00,-68,0,0,-9,-15,30,7,1
2022/4/10 12:00,-67,0,0,-6,-13,31,8,2
2022/4/10 13:00,-64,0,0,7,-3,33,8,2
2022/4/10 14:00,-65,0,0,11,1,34,8,2
2022/4/10 15:00,-64,0,0,11,1,35,8,2
2022/4/10 16:00,-64,-5,-5,14,3,35,8,1
2022/4/10 17:00,-64,-11,-11,16,5,34,7,1
2022/4/10 18:00,-63,-26,-26,19,7,35,7,1
2022/4/10 19:00,-62,-25,-25,21,8,38,8,1
2022/4/10 20:00,-62,-24,-24,21,7,38,8,1
2022/4/10 21:00,-62,-22,-22,20,7,36,7,1
2022/4/10 22:00,-62,-28,-28,19,7,34,6,1
2022/4/10 23:00,-63,-16,-16,18,7,32,5,1
2022/4/11 0:00,-62,-4,-4,18,7,31,5,1
2022/4/11 1:00,-62,-3,-3,18,7,31,5,1
2022/4/11 2:00,-62,-1,-1,19,6,34,5,1
2022/4/11 3:00,-62,0,0,19,7,37,7,2
2022/4/11 4:00,-62,0,0,20,7,42,8,2
2022/4/11 5:00,-62,0,0,22,7,44,9,3
2022/4/11 6:00,-62,-2,-2,21,6,43,9,3
2022/4/11 7:00,-63,-8,-8,16,4,39,8,2
2022/4/11 8:00,-65,-7,-7,10,-1,38,8,2
2022/4/11 9:00,-66,-6,-6,7,-4,43,10,3
2022/4/11 10:00,-67,-9,-9,0,-10,44,9,3
2022/4/11 11:00,-66,-9,-9,-6,-15,41,9,2
2022/4/11 12:00,-67,-10,-10,-11,-18,40,8,2
2022/4/11 13:00,-68,-9,-9,-11,-18,35,8,1
2022/4/11 14:00,-67,-7,-7,-8,-15,40,9,2
2022/4/11 15:00,-66,-6,-6,-3,-11,40,9,2
2022/4/11 16:00,-65,-5,-5,3,-6,40,9,2
2022/4/11 17:00,-64,-7,-7,11,0,41,9,2
2022/4/11 18:00,-62,-5,-5,18,6,41,9,2
2022/4/11 19:00,-61,-6,-6,21,7,42,9,2
2022/4/11 20:00,-61,-2,-2,21,7,42,9,2
2022/4/11 21:00,-62,-3,-3,20,7,38,8,2
2022/4/11 22:00,-62,-6,-6,19,7,36,8,2
2022/4/11 23:00,-62,-5,-5,17,6,34,7,2
2022/4/12 0:00,-62,-10,-10,18,6,35,7,2
2022/4/12 1:00,-62,-15,-15,17,7,35,7,1
2022/4/12 2:00,-62,-11,-11,18,7,39,7,2
2022/4/12 3:00,-62,-12,-12,19,7,39,7,2
2022/4/12 4:00,-62,-8,-8,20,7,41,7,2
2022/4/12 5:00,-62,-9,-9,21,7,44,8,2
2022/4/12 6:00,-62,-15,-15,20,6,44,8,2
2022/4/12 7:00,-63,-13,-13,14,2,41,8,2
2022/4/12 8:00,-65,-6,-6,5,-4,37,8,2
2022/4/12 9:00,-64,-4,-4,-1,-9,40,9,2
2022/4/12 10:00,-66,-6,-6,-1,-8,42,9,2
2022/4/12 11:00,-67,-7,-7,-4,-11,41,9,2
2022/4/12 12:00,-67,-8,-8,-11,-17,41,9,2
2022/4/12 13:00,-68,-8,-8,-12,-19,34,8,2
2022/4/12 14:00,-67,-7,-7,-10,-17,38,9,2
2022/4/12 15:00,-66,-7,-7,-2,-11,38,9,2
2022/4/12 16:00,-64,-8,-8,4,-5,39,9,2
2022/4/12 17:00,-62,-3,-3,15,4,39,9,2
2022/4/12 18:00,-61,-3,-3,20,7,39,9,2
2022/4/12 19:00,-61,-7,-7,20,7,41,9,2
2022/4/12 20:00,-61,-2,-2,20,7,40,9,2
2022/4/12 21:00,-62,-3,-3,19,7,38,8,2
2022/4/12 22:00,-62,-2,-2,18,7,36,7,2
2022/4/12 23:00,-62,-11,-11,17,6,34,6,1
2022/4/13 0:00,-62,-13,-13,17,6,34,6,1
2022/4/13 1:00,-62,-4,-4,17,6,35,6,1
2022/4/13 2:00,-62,-2,-2,17,6,37,6,1
2022/4/13 3:00,-62,-3,-3,19,6,38,5,1
2022/4/13 4:00,-62,-1,-1,19,6,42,7,2
2022/4/13 5:00,-62,-1,-1,20,7,43,7,2
2022/4/13 6:00,-62,0,0,20,7,43,7,2
2022/4/13 7:00,-62,-1,-1,19,6,41,7,2
2022/4/13 8:00,-63,0,0,17,6,40,8,2
2022/4/13 9:00,-62,0,0,18,6,43,9,2
2022/4/13 10:00,-63,0,0,15,3,44,9,2
2022/4/13 11:00,-64,-2,-2,13,2,42,10,2
2022/4/13 12:00,-63,-4,-4,15,3,41,9,2
2022/4/13 13:00,-64,-3,-3,14,3,36,9,2
2022/4/13 14:00,-63,-3,-3,11,-1,41,9,3
2022/4/13 15:00,-64,-3,-3,8,-2,40,9,2
2022/4/13 16:00,-62,-2,-2,15,3,41,9,2
2022/4/13 17:00,-62,-3,-3,14,3,41,8,2
2022/4/13 18:00,-61,-2,-2,18,6,40,8,1
2022/4/13 19:00,-61,-1,-1,21,7,42,8,2
2022/4/13 20:00,-61,0,0,21,7,40,9,2
2022/4/13 21:00,-62,0,0,20,7,39,9,2
2022/4/13 22:00,-62,0,0,19,7,36,8,2
2022/4/13 23:00,-62,0,0,18,7,35,7,2
2022/4/14 0:00,-62,0,0,18,6,37,7,2
2022/4/14 1:00,-62,0,0,18,7,37,7,2
2022/4/14 2:00,-62,0,0,19,7,38,7,2
2022/4/14 3:00,-62,0,0,19,6,40,8,2
2022/4/14 4:00,-61,0,0,20,7,43,8,2
2022/4/14 5:00,-61,0,0,21,7,45,9,3
2022/4/14 6:00,-62,0,0,20,6,45,9,3
2022/4/14 7:00,-63,0,0,13,1,43,8,2
2022/4/14 8:00,-65,0,0,5,-4,38,8,2
2022/4/14 9:00,-66,0,0,-3,-11,41,10,3
2022/4/14 10:00,-66,-2,-2,-8,-15,43,9,3
2022/4/14 11:00,-66,-12,-12,-6,-13,41,9,3
2022/4/14 12:00,-64,-15,-15,2,-6,42,9,3
2022/4/14 13:00,-65,-16,-16,12,2,37,8,2
2022/4/14 14:00,-65,-16,-16,10,0,41,9,3
2022/4/14 15:00,-64,-16,-16,13,3,42,9,3
2022/4/14 16:00,-63,-18,-18,17,5,43,10,2
2022/4/14 17:00,-62,-16,-16,17,5,42,9,2
2022/4/14 18:00,-61,-19,-19,20,7,42,8,2
2022/4/14 19:00,-61,-23,-23,22,8,43,9,2
2022/4/14 20:00,-61,-22,-22,22,8,42,8,2
2022/4/14 21:00,-61,-23,-23,21,8,39,8,2
2022/4/14 22:00,-62,-29,-29,19,7,40,7,1
2022/4/14 23:00,-62,-31,-31,18,7,40,6,1
2022/4/15 0:00,-62,-32,-32,18,6,41,6,1
2022/4/15 1:00,-62,-28,-28,18,6,40,6,1
2022/4/15 2:00,-62,-23,-23,19,7,41,6,1
2022/4/15 3:00,-62,-24,-24,19,6,43,6,2
2022/4/15 4:00,-62,-24,-24,20,7,45,7,2
2022/4/15 5:00,-61,-21,-21,22,7,49,8,2
2022/4/15 6:00,-62,-13,-13,22,7,47,8,2
2022/4/15 7:00,-62,-5,-5,20,7,44,8,2
2022/4/15 8:00,-63,-2,-2,16,4,40,9,2
2022/4/15 9:00,-62,0,0,15,3,44,10,3
2022/4/15 10:00,-62,0,0,14,2,46,10,3
2022/4/15 11:00,-65,0,0,6,-5,44,10,3
2022/4/15 12:00,-65,0,0,2,-8,42,10,3
2022/4/15 13:00,-65,0,0,6,-5,38,9,2
2022/4/15 14:00,-65,0,0,6,-5,42,10,3
2022/4/15 15:00,-66,0,0,6,-4,41,10,3
2022/4/15 16:00,-66,0,0,2,-7,40,9,2
2022/4/15 17:00,-63,0,0,9,-2,41,9,2
2022/4/15 18:00,-62,0,0,18,6,42,9,2
2022/4/15 19:00,-61,0,0,21,8,44,9,2
2022/4/15 20:00,-61,0,0,22,8,42,9,2
2022/4/15 21:00,-61,0,0,21,8,40,9,2
2022/4/15 22:00,-62,0,0,19,7,37,8,2
2022/4/15 23:00,-6,0,0,18,7,37,7,2
2022/4/16 0:00,9,0,0,18,7,38,7,2
2022/4/16 1:00,8,0,0,18,6,38,7,2
2022/4/16 2:00,8,0,0,18,6,40,7,2
2022/4/16 3:00,8,0,0,19,7,44,8,2
2022/4/16 4:00,9,0,0,20,7,45,8,2
2022/4/16 5:00,9,0,0,21,7,47,8,3
2022/4/16 6:00,8,0,0,20,6,45,8,2
2022/4/16 7:00,6,-1,-1,12,1,40,7,2
2022/4/16 8:00,3,0,0,1,-7,34,7,2
2022/4/16 9:00,3,0,0,-6,-12,35,8,2
2022/4/16 10:00,2,0,0,-13,-19,34,8,2
2022/4/16 11:00,1,-1,-1,-14,-20,33,8,2
2022/4/16 12:00,1,-2,-2,-15,-20,31,8,2
2022/4/16 13:00,0,-3,-3,-15,-20,29,7,2
2022/4/16 14:00,1,-2,-2,-13,-18,29,7,2
2022/4/16 15:00,2,-5,-5,-8,-15,29,6,1
2022/4/16 16:00,3,-15,-15,-1,-9,28,6,1
2022/4/16 17:00,4,-12,-12,8,-2,31,6,1
2022/4/16 18:00,6,-11,-11,17,6,34,6,1
2022/4/16 19:00,7,-3,-3,20,8,37,8,2
2022/4/16 20:00,7,-4,-4,20,8,38,8,2
2022/4/16 21:00,7,-2,-2,19,8,36,8,2
2022/4/16 22:00,7,-2,-2,19,7,35,8,2
2022/4/16 23:00,6,-9,-9,17,7,34,7,2
2022/4/17 0:00,7,-9,-9,18,7,34,6,1
2022/4/17 1:00,7,-3,-3,17,7,37,7,2
2022/4/17 2:00,7,-6,-6,18,7,39,7,2
2022/4/17 3:00,7,-10,-10,19,7,41,7,2
2022/4/17 4:00,7,-7,-7,19,7,44,7,2
2022/4/17 5:00,7,-5,-5,20,7,46,8,2
2022/4/17 6:00,6,-5,-5,19,6,44,8,2
2022/4/17 7:00,5,-10,-10,11,0,38,7,2
2022/4/17 8:00,4,-10,-10,6,-3,37,7,1
2022/4/17 9:00,4,-5,-5,5,-4,36,7,2
2022/4/17 10:00,2,-5,-5,-3,-9,34,7,1
2022/4/17 11:00,4,-11,-11,-1,-9,33,6,1
2022/4/17 12:00,5,-9,-9,8,-1,35,6,1
2022/4/17 13:00,5,-9,-9,13,3,33,6,1
2022/4/17 14:00,5,-11,-11,9,0,30,5,0
2022/4/17 15:00,6,-10,-10,13,3,32,6,0
2022/4/17 16:00,5,-6,-6,11,2,33,7,1
2022/4/17 17:00,6,-10,-10,17,6,33,7,1
2022/4/17 18:00,6,-8,-8,19,7,35,7,1
2022/4/17 19:00,7,-12,-12,21,8,37,8,2
2022/4/17 20:00,7,-6,-6,20,7,38,8,2
2022/4/17 21:00,7,-5,-5,20,7,39,8,2
2022/4/17 22:00,7,-2,-2,18,7,36,8,2
2022/4/17 23:00,7,-1,-1,17,6,34,7,2
2022/4/18 0:00,7,0,0,17,7,36,7,2
2022/4/18 1:00,7,0,0,17,7,36,7,2
2022/4/18 2:00,7,0,0,18,6,38,7,2
2022/4/18 3:00,7,0,0,20,7,41,8,2
2022/4/18 4:00,7,0,0,20,7,43,8,2
2022/4/18 5:00,8,0,0,21,7,46,8,3
2022/4/18 6:00,7,0,0,20,6,44,8,3
2022/4/18 7:00,6,0,0,14,2,41,8,2
2022/4/18 8:00,5,0,0,8,-2,37,8,2
2022/4/18 9:00,5,4,4,2,-7,40,10,3
2022/4/18 10:00,5,2,2,7,-2,42,9,3
2022/4/18 11:00,5,2,2,4,-4,43,9,2
2022/4/18 12:00,4,0,0,2,-6,43,9,2
2022/4/18 13:00,2,-1,-1,-3,-10,36,8,2
2022/4/18 14:00,4,0,0,-1,-9,39,9,2
2022/4/18 15:00,5,-4,-4,5,-5,39,9,2
2022/4/18 16:00,6,-4,-4,11,0,41,9,2
2022/4/18 17:00,7,-5,-5,16,4,40,9,2
2022/4/18 18:00,7,-2,-2,19,7,41,9,2
2022/4/18 19:00,8,1,1,21,8,41,9,2
2022/4/18 20:00,8,-5,-5,20,7,39,9,2
2022/4/18 21:00,8,-16,-16,20,7,37,8,2
2022/4/18 22:00,7,-6,-6,19,7,36,8,2
2022/4/18 23:00,7,-8,-8,17,6,37,7,2
2022/4/19 0:00,7,-1,-1,17,7,38,7,2
2022/4/19 1:00,7,0,0,17,6,39,7,2
2022/4/19 2:00,7,-1,-1,18,6,39,7,2
2022/4/19 3:00,7,-5,-5,19,6,42,7,2
2022/4/19 4:00,8,-3,-3,20,7,43,8,2
2022/4/19 5:00,8,-1,-1,21,7,46,8,3
2022/4/19 6:00,7,-2,-2,19,6,45,8,3
2022/4/19 7:00,6,-2,-2,11,0,41,8,2
2022/4/19 8:00,3,-1,-1,3,-6,39,8,2
2022/4/19 9:00,3,-1,-1,-4,-11,42,9,3
2022/4/19 10:00,2,-2,-2,-10,-16,43,10,2
2022/4/19 11:00,2,-4,-4,-12,-18,41,9,2
2022/4/19 12:00,2,-6,-6,-13,-19,40,9,2
2022/4/19 13:00,0,-8,-8,-14,-20,35,9,2
2022/4/19 14:00,2,-8,-8,-12,-18,39,9,2
2022/4/19 15:00,3,-11,-11,-7,-14,41,9,2
2022/4/19 16:00,4,-9,-9,0,-8,39,9,2
2022/4/19 17:00,6,-7,-7,9,-2,38,9,2
2022/4/19 18:00,7,-4,-4,17,6,38,8,2
2022/4/19 19:00,8,-6,-6,20,8,40,8,2
2022/4/19 20:00,8,-6,-6,20,7,40,9,2
2022/4/19 21:00,8,-4,-4,19,7,37,8,2
2022/4/19 22:00,8,-7,-7,18,7,35,8,2
2022/4/19 23:00,7,-4,-4,17,6,33,7,2
2022/4/20 0:00,7,-6,-6,17,7,33,7,2
2022/4/20 1:00,7,-4,-4,17,6,36,7,2
2022/4/20 2:00,7,-4,-4,18,6,38,7,2
2022/4/20 3:00,8,-8,-8,19,6,41,7,2
2022/4/20 4:00,8,-4,-4,19,6,42,8,2
2022/4/20 5:00,8,-2,-2,20,7,45,8,2
2022/4/20 6:00,8,-2,-2,19,6,46,8,2
2022/4/20 7:00,6,0,0,14,3,42,8,2
2022/4/20 8:00,4,0,0,3,-6,39,8,2
2022/4/20 9:00,3,0,0,-4,-11,41,9,2
2022/4/20 10:00,3,0,0,-10,-16,40,9,2
2022/4/20 11:00,3,0,0,-12,-18,38,9,2
2022/4/20 12:00,3,-1,-1,-14,-19,38,9,2
2022/4/20 13:00,2,-1,-1,-14,-19,34,8,2
2022/4/20 14:00,3,-1,-1,-11,-17,38,9,2
2022/4/20 15:00,4,-2,-2,-6,-13,37,9,2
2022/4/20 16:00,5,-2,-2,1,-7,38,9,2
2022/4/20 17:00,7,-1,-1,9,-1,38,9,2
2022/4/20 18:00,8,0,0,18,6,39,8,2
2022/4/20 19:00,9,0,0,20,7,39,8,2
2022/4/20 20:00,9,0,0,20,7,38,8,2
2022/4/20 21:00,9,0,0,19,7,37,8,2
2022/4/20 22:00,8,0,0,18,7,36,7,2
2022/4/20 23:00,8,0,0,17,7,36,6,1
2022/4/21 0:00,8,0,0,17,7,35,6,1
2022/4/21 1:00,8,0,0,17,6,35,6,1
2022/4/21 2:00,8,0,0,17,6,39,6,1
2022/4/21 3:00,9,0,0,19,6,40,7,2
2022/4/21 4:00,9,-1,-1,19,7,42,7,2
2022/4/21 5:00,9,0,0,20,7,44,7,2
2022/4/21 6:00,8,0,0,18,6,45,8,2
2022/4/21 7:00,7,0,0,11,0,40,8,2
2022/4/21 8:00,4,1,1,1,-7,37,8,2
2022/4/21 9:00,2,1,1,-5,-12,39,9,2
2022/4/21 10:00,1,0,0,-11,-17,42,9,2
2022/4/21 11:00,0,-2,-2,-13,-19,40,9,2
2022/4/21 12:00,0,-4,-4,-14,-20,39,9,2
2022/4/21 13:00,0,-5,-5,-14,-19,32,8,2
2022/4/21 14:00,0,-4,-4,-11,-18,36,9,2
2022/4/21 15:00,1,-2,-2,-6,-13,37,9,2
2022/4/21 16:00,3,-2,-2,1,-8,37,9,2
2022/4/21 17:00,5,-1,-1,9,-1,38,9,2
2022/4/21 18:00,7,4,4,17,6,38,8,2
2022/4/21 19:00,8,3,3,20,7,40,9,2
2022/4/21 20:00,7,0,0,20,7,40,9,2
2022/4/21 21:00,7,0,0,19,7,37,8,2
2022/4/21 22:00,7,-1,-1,18,7,34,7,2
2022/4/21 23:00,6,-1,-1,17,6,34,7,1
2022/4/22 0:00,6,-1,-1,17,6,34,6,1
2022/4/22 1:00,6,-1,-1,16,6,35,5,0
2022/4/22 2:00,6,-2,-2,17,6,37,5,1
2022/4/22 3:00,7,-1,-1,18,6,38,6,1
2022/4/22 4:00,7,-1,-1,19,7,41,6,1
2022/4/22 5:00,7,-1,-1,20,7,42,7,2
2022/4/22 6:00,7,-1,-1,19,6,43,8,2
2022/4/22 7:00,6,-1,-1,16,4,41,8,2
2022/4/22 8:00,5,0,0,13,3,39,8,2
2022/4/22 9:00,5,0,0,9,-1,41,9,2
2022/4/22 10:00,4,0,0,2,-7,44,9,2
2022/4/22 11:00,4,0,0,4,-6,42,9,2
2022/4/22 12:00,3,0,0,4,-5,39,9,2
2022/4/22 13:00,3,0,0,4,-4,35,8,2
2022/4/22 14:00,4,0,0,4,-5,40,9,2
2022/4/22 15:00,5,0,0,9,-2,41,9,2
2022/4/22 16:00,5,-3,-3,13,2,39,9,3
2022/4/22 17:00,7,-5,-5,17,6,40,10,3
2022/4/22 18:00,7,-8,-8,19,7,38,9,2
2022/4/22 19:00,8,-6,-6,21,8,40,9,2
2022/4/22 20:00,7,0,0,20,7,38,9,2
2022/4/22 21:00,7,-1,-1,20,7,36,8,2
2022/4/22 22:00,7,-2,-2,18,7,35,7,2
2022/4/22 23:00,6,-11,-11,17,7,35,7,1
2022/4/23 0:00,6,-18,-18,17,6,35,6,1
2022/4/23 1:00,6,-30,-30,16,6,33,5,1
2022/4/23 2:00,6,-22,-22,17,6,36,6,1
2022/4/23 3:00,6,-14,-14,18,6,39,7,2
2022/4/23 4:00,7,-15,-15,19,7,39,7,2
2022/4/23 5:00,6,-23,-23,20,7,40,7,2
2022/4/23 6:00,6,-21,-21,18,6,39,6,2
2022/4/23 7:00,5,-32,-32,14,3,32,5,1
2022/4/23 8:00,3,-32,-32,4,-4,29,5,0
2022/4/23 9:00,2,-23,-23,-2,-9,30,6,2
2022/4/23 10:00,0,-16,-16,-12,-17,31,6,1
2022/4/23 11:00,1,-16,-16,-15,-20,30,6,1
2022/4/23 12:00,1,-17,-17,-15,-20,29,6,1
2022/4/23 13:00,0,-17,-17,-15,-20,27,5,1
2022/4/23 14:00,0,-17,-17,-13,-19,28,5,1
2022/4/23 15:00,0,-22,-22,-9,-16,29,5,1
2022/4/23 16:00,1,-35,-35,-2,-9,31,5,1
2022/4/23 17:00,4,-36,-36,7,-3,31,6,1
2022/4/23 18:00,5,-34,-34,17,6,33,6,1
2022/4/23 19:00,7,-37,-37,20,8,36,6,1
2022/4/23 20:00,7,-26,-26,20,8,36,8,2
2022/4/23 21:00,7,-14,-14,19,8,35,7,2
2022/4/23 22:00,6,-5,-5,18,7,34,7,2
2022/4/23 23:00,6,-4,-4,17,7,34,7,2
2022/4/24 0:00,6,-3,-3,17,7,32,6,2
2022/4/24 1:00,6,-13,-13,16,6,33,6,1
2022/4/24 2:00,6,-10,-10,17,7,35,6,2
2022/4/24 3:00,6,-6,-6,18,7,37,7,2
2022/4/24 4:00,6,-6,-6,19,7,39,7,2
2022/4/24 5:00,6,0,0,20,7,39,8,2
2022/4/24 6:00,6,0,0,18,6,37,7,2
2022/4/24 7:00,4,-2,-2,9,0,35,7,2
2022/4/24 8:00,2,-1,-1,1,-7,31,7,2
2022/4/24 9:00,0,-4,-4,-5,-10,30,7,2
2022/4/24 10:00,0,-6,-6,-8,-14,30,7,1
2022/4/24 11:00,0,-5,-5,-11,-16,30,6,1
2022/4/24 12:00,0,-5,-5,-14,-19,29,6,1
2022/4/24 13:00,0,-3,-3,-10,-15,28,6,0
2022/4/24 14:00,0,-2,-2,-11,-16,28,5,0
2022/4/24 15:00,0,0,0,-8,-14,28,5,0
2022/4/24 16:00,2,0,0,-1,-8,28,6,0
2022/4/24 17:00,3,0,0,8,-2,29,6,0
2022/4/24 18:00,5,-2,-2,17,6,31,6,1
2022/4/24 19:00,6,-4,-4,20,7,35,7,2
2022/4/24 20:00,7,-4,-4,20,7,36,8,2
2022/4/24 21:00,6,-3,-3,19,7,35,8,2
2022/4/24 22:00,6,-8,-8,18,7,33,7,2
2022/4/24 23:00,6,-14,-14,17,6,34,7,2
2022/4/25 0:00,6,-19,-19,17,6,32,6,1
2022/4/25 1:00,6,-12,-12,16,6,30,6,2
2022/4/25 2:00,6,-6,-6,17,6,31,7,2
2022/4/25 3:00,6,-2,-2,18,6,34,7,2
2022/4/25 4:00,6,-1,-1,19,6,39,7,2
2022/4/25 5:00,6,-1,-1,20,7,40,8,2
2022/4/25 6:00,6,-2,-2,17,5,36,7,2
2022/4/25 7:00,5,-4,-4,12,1,33,7,2
2022/4/25 8:00,2,-2,-2,3,-5,31,8,2
2022/4/25 9:00,2,-1,-1,-5,-12,34,9,3
2022/4/25 10:00,2,0,0,-11,-17,37,9,3
2022/4/25 11:00,1,-2,-2,-14,-19,36,9,2
2022/4/25 12:00,2,-6,-6,-8,-15,36,9,2
2022/4/25 13:00,2,-6,-6,-7,-13,33,8,2
2022/4/25 14:00,1,-5,-5,-11,-17,38,9,3
2022/4/25 15:00,2,-4,-4,-7,-14,38,9,3
2022/4/25 16:00,4,-4,-4,3,-6,38,9,2
2022/4/25 17:00,5,-4,-4,10,0,38,9,2
2022/4/25 18:00,6,-6,-6,17,6,38,9,2
2022/4/25 19:00,7,-4,-4,20,7,39,9,2
2022/4/25 20:00,7,-2,-2,20,7,39,9,2
2022/4/25 21:00,7,0,0,19,7,37,8,2
2022/4/25 22:00,7,0,0,18,7,35,7,2
2022/4/25 23:00,6,0,0,16,6,33,6,1
2022/4/26 0:00,6,-2,-2,16,6,34,6,1
2022/4/26 1:00,6,-9,-9,16,6,34,6,1
2022/4/26 2:00,6,-15,-15,17,6,36,6,1
2022/4/26 3:00,7,-11,-11,18,6,38,6,2
2022/4/26 4:00,7,-7,-7,19,6,40,6,2
2022/4/26 5:00,7,-7,-7,19,6,39,6,1
2022/4/26 6:00,6,-7,-7,17,5,39,6,1
2022/4/26 7:00,5,-14,-14,13,2,37,6,1
2022/4/26 8:00,3,-19,-19,8,-1,37,7,1
2022/4/26 9:00,4,-26,-26,7,-2,38,8,2
2022/4/26 10:00,3,-23,-23,3,-6,42,8,2
2022/4/26 11:00,3,-13,-13,-2,-10,42,9,2
2022/4/26 12:00,5,-8,-8,1,-9,40,8,1
2022/4/26 13:00,5,-1,-1,7,-4,37,8,1
2022/4/26 14:00,6,0,0,12,1,43,9,2
2022/4/26 15:00,6,0,0,14,3,44,10,2
2022/4/26 16:00,5,0,0,11,0,42,9,2
2022/4/26 17:00,6,0,0,13,2,42,9,2
2022/4/26 18:00,7,-1,-1,17,5,42,9,2
2022/4/26 19:00,8,-2,-2,21,7,43,9,2
2022/4/26 20:00,8,-2,-2,20,7,43,8,2
2022/4/26 21:00,7,-2,-2,20,7,39,8,2
2022/4/26 22:00,7,0,0,18,7,36,7,2
2022/4/26 23:00,6,-8,-8,17,6,36,7,2